Location: Home
(42.5358°N, 72.7383°W)
Time: 15:11:09
(UTC-05:00)

Vanguard 1 - Pass Details

Date: 05 December 2021
Orbit: 652 x 3830 km, 34.2° (Epoch: 19 January)

Event Time Altitude Azimuth Distance (km) Brightness Sun altitude
Rises 07:31:24 0° 279° (W) 7,193 13.9 3.2°
Reaches altitude 10° 07:42:26 10° 250° (WSW) 5,214 13.5 4.8°
Maximum altitude 07:45:13 11° 239° (WSW) 4,861 13.4 5.3°
Drops below altitude 10° 07:47:45 10° 228° (SW) 4,643 13.4 5.6°
Sets 07:55:01 0° 193° (SSW) 4,769 14.0 6.7°
